| time (UTC) | temp F | wind direction | speed knots | gust knots | rain 1hr in | rain 24hr in | rain mn in | humidity % | barometer mb |
| 20260504020038 | 67 | 302 | 1.7 | 4.3 | 0.00 | 0.24 | 0.00 | 59 | 1011.6 |
| 20260504014537 | 66 | 300 | 0.0 | 4.3 | 0.00 | 0.24 | 0.00 | 64 | 1011.8 |
| 20260504013034 | 66 | 309 | 2.6 | 6.1 | 0.00 | 0.24 | 0.00 | 63 | 1012.2 |
| 20260504011530 | 66 | 326 | 3.5 | 5.2 | 0.00 | 0.24 | 0.00 | 65 | 1012.3 |
| 20260504010029 | 65 | 328 | 0.0 | 0.9 | 0.00 | 0.24 | 0.00 | 70 | 1012.5 |
| 20260504004539 | 63 | 345 | 0.0 | 1.7 | 0.00 | 0.24 | 0.00 | 73 | 1012.7 |
| 20260504003025 | 63 | 276 | 0.0 | 1.7 | 0.00 | 0.24 | 0.00 | 72 | 1012.5 |
| 20260504001525 | 64 | 319 | 0.0 | 2.6 | 0.00 | 0.24 | 0.00 | 69 | 1012.5 |
| 20260504000022 | 64 | 277 | 0.9 | 4.3 | 0.00 | 0.24 | 0.00 | 71 | 1012.5 |
| 20260503234519 | 63 | 321 | 0.0 | 2.6 | 0.00 | 0.24 | 0.00 | 73 | 1012.6 |
| 20260503233016 | 62 | 309 | 0.0 | 2.6 | 0.00 | 0.24 | 0.00 | 76 | 1012.7 |
| 20260503231512 | 62 | 55 | 0.9 | 2.6 | 0.00 | 0.24 | 0.00 | 77 | 1013.0 |
| 20260503230009 | 61 | 317 | 0.0 | 1.7 | 0.00 | 0.24 | 0.00 | 81 | 1012.8 |
| 20260503224507 | 59 | 288 | 0.0 | 2.6 | 0.00 | 0.24 | 0.00 | 84 | 1012.8 |
| 20260503223002 | 56 | 217 | 0.9 | 5.2 | 0.00 | 0.24 | 0.00 | 89 | 1012.5 |
| 20260503221600 | 54 | 269 | 0.0 | 1.7 | 0.00 | 0.24 | 0.00 | 94 | 1012.6 |
| 20260503214600 | 50 | 39 | 0.0 | 0.0 | 0.00 | 0.24 | 0.00 | 94 | 1012.8 |
| 20260503213058 | 50 | 38 | 0.0 | 0.0 | 0.00 | 0.24 | 0.00 | 93 | 1012.8 |
| 20260503211557 | 50 | 38 | 0.0 | 0.0 | 0.00 | 0.24 | 0.00 | 93 | 1012.2 |
| 20260503210054 | 51 | 38 | 0.0 | 0.0 | 0.00 | 0.24 | 0.00 | 93 | 1012.1 |
| 20260503204552 | 51 | 38 | 0.0 | 0.0 | 0.00 | 0.24 | 0.00 | 93 | 1012.0 |
| 20260503203049 | 52 | 39 | 0.0 | 0.0 | 0.00 | 0.24 | 0.00 | 93 | 1011.7 |
| 20260503201547 | 53 | 39 | 0.0 | 0.0 | 0.00 | 0.24 | 0.00 | 93 | 1011.5 |
| 20260503200051 | 53 | 39 | 0.0 | 0.0 | 0.00 | 0.24 | 0.00 | 94 | 1011.4 |
| 20260503194545 | 53 | 26 | 0.0 | 1.7 | 0.00 | 0.24 | 0.00 | 95 | 1010.9 |
| 20260503193048 | 53 | 20 | 0.0 | 0.0 | 0.00 | 0.24 | 0.00 | 95 | 1011.2 |
| 20260503191543 | 53 | 108 | 0.0 | 1.7 | 0.00 | 0.24 | 0.00 | 95 | 1011.3 |
| 20260503190044 | 53 | 269 | 0.0 | 0.0 | 0.00 | 0.24 | 0.00 | 95 | 1010.9 |
| 20260503184541 | 53 | 201 | 0.0 | 0.0 | 0.00 | 0.24 | 0.00 | 95 | 1011.0 |
| 20260503183053 | 53 | 202 | 0.0 | 0.0 | 0.00 | 0.24 | 0.00 | 95 | 1011.0 |
| 20260503181540 | 54 | 202 | 0.0 | 0.9 | 0.00 | 0.24 | 0.00 | 95 | 1010.8 |
| 20260503180036 | 54 | 250 | 0.0 | 0.0 | 0.00 | 0.24 | 0.00 | 95 | 1010.9 |
| 20260503174536 | 55 | 250 | 0.0 | 0.9 | 0.00 | 0.24 | 0.00 | 95 | 1010.7 |
| 20260503173030 | 56 | 262 | 0.0 | 0.9 | 0.00 | 0.24 | 0.00 | 95 | 1010.6 |
| 20260503171527 | 57 | 134 | 0.0 | 0.0 | 0.00 | 0.24 | 0.00 | 96 | 1010.8 |
| 20260503090110 | 59 | 176 | 0.0 | 0.0 | 0.00 | 0.08 | 0.08 | 93 | 1012.6 |
| 20260503081557 | 61 | 176 | 0.0 | 0.0 | 0.01 | 0.08 | 0.08 | 92 | 1012.3 |
| 20260503080105 | 61 | 120 | 0.0 | 0.0 | 0.02 | 0.08 | 0.08 | 92 | 1012.3 |
| 20260503071604 | 63 | 298 | 0.0 | 0.0 | 0.07 | 0.07 | 0.07 | 91 | 1012.7 |
| 20260503070111 | 63 | 280 | 0.0 | 0.0 | 0.06 | 0.06 | 0.06 | 90 | 1012.9 |
| 20260503060113 | 65 | 286 | 0.0 | 6.1 | 0.00 | 0.00 | 0.00 | 88 | 1012.3 |
| 20260503054554 | 65 | 45 | 2.6 | 7.0 | 0.00 | 0.00 | 0.00 | 87 | 1012.2 |
| 20260503053050 | 66 | 335 | 3.5 | 8.7 | 0.00 | 0.00 | 0.00 | 87 | 1012.3 |
| 20260503051552 | 66 | 65 | 4.3 | 8.7 | 0.00 | 0.00 | 0.00 | 86 | 1012.5 |
| 20260503050049 | 66 | 41 | 3.5 | 8.7 | 0.00 | 0.00 | 0.00 | 85 | 1012.3 |
| 20260503044547 | 67 | 62 | 3.5 | 7.0 | 0.00 | 0.00 | 0.00 | 83 | 1012.5 |
| 20260503043047 | 67 | 308 | 0.9 | 3.5 | 0.00 | 0.00 | 0.00 | 83 | 1012.4 |
| 20260503041544 | 68 | 36 | 0.9 | 3.5 | 0.00 | 0.00 | 0.00 | 82 | 1012.5 |
| 20260503040043 | 68 | 56 | 1.7 | 5.2 | 0.00 | 0.00 | 0.00 | 82 | 1012.8 |
| 20260503034541 | 68 | 23 | 1.7 | 7.0 | 0.00 | 0.00 | 0.00 | 83 | 1013.0 |
| 20260503033046 | 68 | 321 | 2.6 | 8.7 | 0.00 | 0.00 | 0.00 | 82 | 1013.4 |
| 20260503031538 | 68 | 92 | 3.5 | 9.6 | 0.00 | 0.00 | 0.00 | 82 | 1013.5 |
| 20260503030034 | 68 | 2 | 3.5 | 8.7 | 0.00 | 0.00 | 0.00 | 81 | 1013.7 |
| 20260503024531 | 67 | 75 | 2.6 | 5.2 | 0.00 | 0.00 | 0.00 | 81 | 1014.3 |
| 20260503023028 | 68 | 87 | 4.3 | 7.8 | 0.00 | 0.00 | 0.00 | 78 | 1014.5 |
| 20260503021527 | 69 | 58 | 0.9 | 4.3 | 0.00 | 0.00 | 0.00 | 78 | 1014.7 |